MST,Max TemperatureF,Mean TemperatureF,Min TemperatureF,Max Dew PointF,MeanDew PointF,Min DewpointF,Max Humidity, Mean Humidity, Min Humidity, Max Sea Level PressureIn, Mean Sea Level PressureIn, Min Sea Level PressureIn, Max VisibilityMiles, Mean VisibilityMiles, Min VisibilityMiles, Max Wind SpeedMPH, Mean Wind SpeedMPH, Max Gust SpeedMPH,PrecipitationIn, CloudCover, Events, WindDirDegrees
2012-2-1,70,56,41,35,30,26,65,43,21,30.19,30.08,29.97,10,10,10,8,4,,0.00,1,,352
2012-2-2,68,54,39,33,28,24,65,41,20,29.97,29.92,29.83,10,10,10,20,6,24,0.00,1,Rain,321
2012-2-3,65,52,39,32,30,27,71,45,23,30.09,30.03,29.96,10,10,10,10,6,,0.00,0,,340
2012-2-4,68,54,39,31,27,23,66,40,18,30.10,30.05,30.00,10,10,10,8,5,,0.00,0,,347
2012-2-5,68,54,39,30,27,24,65,38,19,30.11,30.04,29.98,10,10,10,8,4,,0.00,0,,358
2012-2-6,67,55,43,35,29,26,57,40,21,30.08,30.02,29.98,10,10,10,9,3,,0.00,1,,333
2012-2-7,72,60,47,37,28,22,54,32,15,30.06,29.98,29.90,10,10,6,12,5,,0.00,4,,20
2012-2-8,71,60,48,41,34,30,59,41,23,30.10,30.04,29.94,10,10,10,7,3,,0.00,4,,334
2012-2-9,77,62,46,37,32,27,60,37,20,30.17,30.08,30.01,10,10,10,13,4,,0.00,0,,285
2012-2-10,77,62,47,42,32,28,57,36,17,30.18,30.08,30.00,10,10,7,8,3,,0.00,0,Rain,356
2012-2-11,77,62,46,34,31,28,60,34,17,30.00,29.88,29.75,10,10,10,14,4,,0.00,0,,235
2012-2-12,66,56,47,37,35,32,58,42,31,29.93,29.86,29.79,10,10,10,15,10,23,0.00,0,,217
2012-2-13,66,56,45,42,37,33,65,47,29,30.00,29.89,29.82,10,10,10,14,8,,0.00,3,,210
2012-2-14,60,52,45,42,32,23,67,45,23,30.05,29.91,29.81,10,10,8,26,9,31,0.00,4,,211
2012-2-15,63,50,38,36,32,29,84,52,28,30.12,30.01,29.93,10,10,10,10,5,17,0.00,0,,46
2012-2-16,67,53,39,41,31,27,72,43,23,30.04,29.97,29.93,10,10,9,17,5,,0.00,0,Rain,313
2012-2-17,68,55,42,40,35,30,77,49,24,30.11,30.04,29.97,10,10,10,18,8,18,0.00,0,,214
2012-2-18,67,54,40,41,33,25,67,48,23,30.16,30.07,29.99,10,10,10,10,5,,0.00,0,,278
2012-2-19,67,55,43,35,32,29,65,43,25,29.97,29.90,29.83,10,10,10,14,5,,0.00,0,,303
2012-2-20,67,54,42,31,29,24,59,39,20,30.14,30.05,29.98,10,10,10,8,3,,0.00,0,,18
2012-2-21,73,56,39,27,20,14,52,24,10,30.15,30.10,30.04,10,10,8,12,4,,0.00,0,,319
2012-2-22,75,58,41,32,22,16,49,27,11,30.13,30.04,29.90,10,10,6,8,3,,0.00,0,,315
2012-2-23,77,60,43,36,30,24,61,33,16,29.89,29.83,29.76,10,10,10,9,3,,0.00,0,,224
2012-2-24,78,65,52,32,21,12,42,21,10,30.09,30.00,29.89,10,10,10,15,7,,0.00,0,,11
2012-2-25,78,62,45,28,25,19,51,28,12,30.07,29.98,29.87,10,10,10,10,5,,0.00,0,,302
2012-2-26,78,61,44,40,29,24,55,33,15,29.92,29.84,29.77,10,10,10,7,4,,0.00,0,,354
2012-2-27,75,61,47,41,35,27,61,40,21,29.87,29.80,29.71,10,10,8,30,13,39,0.00,1,,236
2012-2-28,60,53,44,44,33,24,87,52,27,30.21,30.11,29.86,10,10,10,29,13,33,0.01,2,Rain,210
2012-2-29,66,52,38,32,28,23,69,44,20,30.24,30.15,30.07,10,10,10,10,5,,0.00,0,,324